Torna al catalogo

STARLINK-11593

AttivoComunicazioniVLEO
NORAD 63318·PAYLOAD·🇺🇸 United States

Lanciato Mar 18, 2025 da Cape Canaveral Space Force Station

Loading…

Prossimi Passaggi (prossime 24 ore)

TLE

AggiornatoSource: CelesTrak SupGP

Epoca: Sep 15, 2026, 03:34 UTC

1 63318C 25057M   26258.14909722 -.00039341  00000+0 -30557-3 0  2589
2 63318  43.0007 202.2734 0001517 273.5333 226.8221 15.70857050    19

Traccia STARLINK-11593 in tempo reale con AllMySat

Download on the App Store